This demonstration page uses our WeatherBlox Daily Observations layout. Learn more.

Left ArrowRight Arrow

Hourly Observations for June 6, 2018

Temp ( °F °C ) Dew Point ( °F °C ) Humidity (%) Winds ( mph kmh ) Pressure ( in mb ) Visibility ( mi km ) Precip ( " mm )
12:54 am 00:54 Clear 74 23.3 66 18.9 76 76 S 8 13 29.78 1008 10 16 0.00 0.00
1:54 am 01:54 Clear 76 24.4 66 18.9 72 72 SSE 7 11 29.78 1009 10 16 0.00 0.00
2:54 am 02:54 Clear 73 22.8 66 18.9 79 79 S 8 13 29.78 1009 10 16 0.00 0.00
3:54 am 03:54 Clear 72 22.2 67 19.4 84 84 S 8 13 29.78 1008 10 16 0.00 0.00
4:54 am 04:54 Clear 71 21.7 67 19.4 87 87 S 6 9 29.79 1009 10 16 0.00 0.00
5:54 am 05:54 Clear 72 22.2 67 19.4 84 84 WSW 3 6 29.84 1010 10 16 0.00 0.00
6:54 am 06:54 Sunny 72 22.2 68 20 87 87 SSE 5 7 29.84 1011 9 14 0.00 0.00
7:54 am 07:54 Sunny 74 23.3 69 20.6 85 85 Calm 29.87 1011 10 16 0.00 0.00
8:54 am 08:54 Sunny 77 25 70 21.1 79 79 S 13 20 29.84 1011 10 16 0.00 0.00
9:54 am 09:54 Sunny 81 27.2 72 22.2 74 74 S 10 17 29.83 1010 9 14 0.00 0.00
10:54 am 10:54 Sunny 84 28.9 73 22.8 70 70 SSW 13 20 29.83 1010 10 16 0.00 0.00
11:54 am 11:54 Sunny 88 31.1 69 20.6 54 54 S 18 30 29.82 1010 10 16 0.00 0.00
12:54 pm 12:54 Sunny 90 32.2 67 19.4 47 47 S 14 22 29.80 1009 10 16 0.00 0.00
1:54 pm 13:54 Sunny 89 31.7 66 18.9 47 47 S 9 15 29.79 1009 10 16 0.00 0.00
2:54 pm 14:54 Sunny 92 33.3 67 19.4 44 44 S 12 19 29.79 1009 10 16 0.00 0.00
3:54 pm 15:54 Sunny 93 33.9 65 18.3 40 40 S 13 20 29.78 1009 10 16 0.00 0.00
4:54 pm 16:54 Sunny 92 33.3 62 16.7 37 37 SW 15 24 29.78 1009 10 16 0.00 0.00
5:54 pm 17:54 Sunny 92 33.3 64 17.8 40 40 S 16 26 29.75 1007 10 16 0.00 0.00
6:54 pm 18:54 Sunny 90 32.2 67 19.4 47 47 S 9 15 29.77 1008 10 16 0.00 0.00
7:54 pm 19:54 Sunny 86 30 67 19.4 53 53 S 5 7 29.76 1008 10 16 0.00 0.00
8:54 pm 20:54 Sunny 81 27.2 60 15.6 49 49 NNW 21 33 29.83 1010 9 14 0.00 0.00
9:54 pm 21:54 Clear 77 25 55 12.8 47 47 N 6 9 29.85 1011 10 16 0.00 0.00
10:54 pm 22:54 Mostly Cloudy 78 25.6 57 13.9 48 48 SE 10 17 29.85 1011 10 16 0.00 0.00
11:05 pm 23:05 Mostly Clear with Nearby Thunderstorms 79 26.1 57 13.9 47 47 ESE 9 15 29.83 1010 10 16 0.00 0.00
11:20 pm 23:20 Clear 80 26.7 55 12.8 42 42 ESE 16 26 29.83 1010 10 16 0.00 0.00
11:54 pm 23:54 Clear 79 26.1 58 14.4 49 49 ESE 9 15 29.85 1011 10 16 0.00 0.00

Powered by AerisWeather